Location: Eaton Estates
(41.3089°N, 82.0057°W)
Time: 08:45:58
(UTC+00:00)

X-37B - Pass Details

Date: 09 December 2022
Orbit: 277 x 277 km, 45.0° (Epoch: 01 November)

Event Time Altitude Azimuth Distance (km) Brightness Sun altitude
Rises 23:30:05 0° 259° (W) 1,910 5.9 -16.6°
Reaches altitude 10° 23:32:02 10° 264° (W) 1,099 4.1 -16.9°
Enters shadow 23:34:13 51° 318° (NW) 357 0.5 -17.3°
